OK1VCF-8 Weather Reports


time (UTC)temp
C
wind
direction
speed
KPH
gust
KPH
rain 1hr
cm
rain 24hr
cm
rain mn
cm
humidity
%
barometer
mb
20260831200405 17 0 0.0 0.0 0.00 0.00 0.00 72 1017.6
20260831195645 17 0 0.0 0.0 0.00 0.00 0.00 71 1017.4
20260831194927 17 0 0.0 0.0 0.00 0.00 0.00 70 1017.3
20260831194209 18 0 0.0 0.0 0.00 0.00 0.00 70 1017.4
20260831193450 17 0 0.0 0.0 0.00 0.00 0.00 70 1017.4
20260831192731 18 0 0.0 0.0 0.00 0.00 0.00 69 1017.4
20260831192012 18 0 0.0 0.0 0.00 0.00 0.00 70 1017.2
20260831191253 17 0 0.0 0.0 0.00 0.00 0.00 70 1017.1
20260831190534 17 0 0.0 0.0 0.00 0.00 0.00 68 1017.2
20260831185814 18 0 0.0 0.0 0.00 0.00 0.00 67 1017.0
20260831185056 18 0 0.0 0.0 0.00 0.00 0.00 66 1017.1
20260831184338 18 0 0.0 0.0 0.00 0.00 0.00 65 1017.0
20260831183620 18 0 0.0 0.0 0.00 0.00 0.00 64 1017.0
20260831182902 19 0 0.0 0.0 0.00 0.00 0.00 62 1017.0
20260831181857 20 0 0.0 0.0 0.00 0.00 0.00 60 1016.8
20260831181140 20 0 0.0 0.0 0.00 0.00 0.00 59 1016.7
20260831180422 20 0 0.0 0.0 0.00 0.00 0.00 57 1016.7
20260831175702 20 0 0.0 0.0 0.00 0.00 0.00 56 1016.5
20260831174942 21 0 0.0 0.0 0.00 0.00 0.00 54 1016.4
20260831174223 21 0 0.0 0.0 0.00 0.00 0.00 56 1016.4
20260831173503 21 0 0.0 0.0 0.00 0.00 0.00 54 1016.4
20260831172743 21 0 0.0 0.0 0.00 0.00 0.00 54 1016.2
20260831172023 21 0 0.0 0.0 0.00 0.00 0.00 54 1016.2
20260831171304 22 0 0.0 0.0 0.00 0.00 0.00 53 1016.2
20260831170544 22 0 0.0 0.0 0.00 0.00 0.00 52 1016.2
20260831165824 22 0 0.0 0.0 0.00 0.00 0.00 50 1016.0
20260831165105 23 0 0.0 0.0 0.00 0.00 0.00 48 1016.1
20260831164347 23 0 0.0 0.0 0.00 0.00 0.00 46 1016.0
20260831163628 28 0 0.0 0.0 0.00 0.00 0.00 38 1016.0
20260831162624 28 0 0.0 0.0 0.00 0.00 0.00 38 1016.2
20260831161905 27 0 0.0 0.0 0.00 0.00 0.00 41 1016.2
20260831161146 24 0 0.0 0.0 0.00 0.00 0.00 46 1016.2
20260831160428 26 0 0.0 0.0 0.00 0.00 0.00 42 1016.2
20260831155708 28 0 0.0 0.0 0.00 0.00 0.00 38 1016.1
20260831154949 27 0 0.0 0.0 0.00 0.00 0.00 40 1016.0
20260831154231 28 0 0.0 0.0 0.00 0.00 0.00 40 1016.1
20260831153511 29 0 0.0 0.0 0.00 0.00 0.00 36 1016.0
20260831152752 30 0 0.0 0.0 0.00 0.00 0.00 38 1016.0
20260831152032 28 0 0.0 0.0 0.00 0.00 0.00 39 1016.2
20260831151313 27 0 0.0 0.0 0.00 0.00 0.00 40 1016.3
20260831150553 25 0 0.0 0.0 0.00 0.00 0.00 46 1016.4
20260831145831 25 0 0.0 0.0 0.00 0.00 0.00 48 1016.3
20260831145113 25 0 0.0 0.0 0.00 0.00 0.00 46 1016.4
20260831144352 26 0 0.0 0.0 0.00 0.00 0.00 46 1016.4
20260831143348 26 0 0.0 0.0 0.00 0.00 0.00 45 1016.4
20260831142628 25 0 0.0 0.0 0.00 0.00 0.00 46 1016.4
20260831141909 26 0 0.0 0.0 0.00 0.00 0.00 47 1016.5
20260831141152 25 0 0.0 0.0 0.00 0.00 0.00 48 1016.5
20260831140432 24 0 0.0 0.0 0.00 0.00 0.00 50 1016.6
20260831135712 25 0 0.0 0.0 0.00 0.00 0.00 48 1016.4
20260831134953 25 0 0.0 0.0 0.00 0.00 0.00 48 1016.4
20260831134234 25 0 0.0 0.0 0.00 0.00 0.00 48 1016.4
20260831133515 24 0 0.0 0.0 0.00 0.00 0.00 48 1016.4
20260831132755 24 0 0.0 0.0 0.00 0.00 0.00 50 1016.6
20260831132033 25 0 0.0 0.0 0.00 0.00 0.00 50 1016.6
20260831131315 25 0 0.0 0.0 0.00 0.00 0.00 51 1016.6
20260831130555 24 0 0.0 0.0 0.00 0.00 0.00 52 1016.6
20260831125832 24 0 0.0 0.0 0.00 0.00 0.00 50 1016.7
20260831125106 25 0 0.0 0.0 0.00 0.00 0.00 48 1016.8
20260831124050 25 0 0.0 0.0 0.00 0.00 0.00 50 1016.8
20260831123322 24 0 0.0 0.0 0.00 0.00 0.00 52 1016.7
20260831122556 23 0 0.0 0.0 0.00 0.00 0.00 54 1016.6
20260831121823 23 0 0.0 0.0 0.00 0.00 0.00 58 1016.8
20260831121054 24 0 0.0 0.0 0.00 0.00 0.00 54 1016.7
20260831120317 23 0 0.0 0.0 0.00 0.00 0.00 55 1016.6
20260831115534 23 0 0.0 0.0 0.00 0.00 0.00 56 1016.8
20260831114759 23 0 0.0 0.0 0.00 0.00 0.00 58 1016.7
20260831114024 23 0 0.0 0.0 0.00 0.00 0.00 58 1016.8
20260831113256 24 0 0.0 0.0 0.00 0.00 0.00 59 1016.8
20260831112528 24 0 0.0 0.0 0.00 0.00 0.00 60 1016.8
20260831111802 23 0 0.0 0.0 0.00 0.00 0.00 62 1016.8
20260831111038 23 0 0.0 0.0 0.00 0.00 0.00 64 1017.0
20260831110319 23 0 0.0 0.0 0.00 0.00 0.00 64 1017.0
20260831105559 23 0 0.0 0.0 0.00 0.00 0.00 65 1017.0
20260831104556 22 0 0.0 0.0 0.00 0.00 0.00 68 1017.0
20260831103836 23 0 0.0 0.0 0.00 0.00 0.00 67 1017.0
20260831103118 23 0 0.0 0.0 0.00 0.00 0.00 69 1017.0
20260831102359 22 0 0.0 0.0 0.00 0.00 0.00 72 1017.0
20260831101640 23 0 0.0 0.0 0.00 0.00 0.00 70 1016.9
20260831100921 23 0 0.0 0.0 0.00 0.00 0.00 73 1016.8
20260831100201 23 0 0.0 0.0 0.00 0.00 0.00 74 1017.0
20260831095441 22 0 0.0 0.0 0.00 0.00 0.00 78 1017.1
20260831094723 22 0 0.0 0.0 0.00 0.00 0.00 76 1017.0
20260831094003 23 0 0.0 0.0 0.00 0.00 0.00 74 1017.0
20260831093245 22 0 0.0 0.0 0.00 0.00 0.00 75 1017.0
20260831092528 22 0 0.0 0.0 0.00 0.00 0.00 77 1017.0
20260831091810 21 0 0.0 0.0 0.00 0.00 0.00 78 1017.1
20260831091052 21 0 0.0 0.0 0.00 0.00 0.00 80 1017.1
20260831090334 20 0 0.0 0.0 0.00 0.00 0.00 84 1017.0
20260831085331 20 0 0.0 0.0 0.00 0.00 0.00 90 1017.0
20260831084614 18 0 0.0 0.0 0.00 0.00 0.00 91 1016.9
20260831083855 18 0 0.0 0.0 0.00 0.00 0.00 92 1016.7
20260831083137 17 0 0.0 0.0 0.00 0.00 0.00 92 1016.8
20260831082419 17 0 0.0 0.0 0.00 0.00 0.00 92 1016.7
20260831081700 17 0 0.0 0.0 0.00 0.00 0.00 93 1016.6
20260831080941 17 0 0.0 0.0 0.00 0.00 0.00 93 1016.3
20260831074759 16 0 0.0 0.0 0.00 0.00 0.00 94 1016.0
20260831074040 16 0 0.0 0.0 0.00 0.00 0.00 94 1016.0
20260831073321 16 0 0.0 0.0 0.00 0.00 0.00 94 1015.9
20260831072601 16 0 0.0 0.0 0.00 0.00 0.00 94 1016.2
20260831071840 16 0 0.0 0.0 0.00 0.00 0.00 94 1016.2
20260831071119 16 0 0.0 0.0 0.00 0.00 0.00 94 1016.4
20260831070109 15 0 0.0 0.0 0.00 0.00 0.00 93 1016.6
20260831065344 15 0 0.0 0.0 0.00 0.00 0.00 93 1017.0
20260831064620 15 0 0.0 0.0 0.00 0.00 0.00 92 1016.9
20260831063849 16 0 0.0 0.0 0.00 0.00 0.00 92 1016.7
20260831063127 16 0 0.0 0.0 0.00 0.00 0.00 90 1017.1
20260831062402 16 0 0.0 0.0 0.00 0.00 0.00 88 1016.5
20260831061638 18 0 0.0 0.0 0.00 0.00 0.00 77 1015.2
20260831060916 18 0 0.0 0.0 0.00 0.00 0.00 77 1014.6
20260831060152 18 0 0.0 0.0 0.00 0.00 0.00 77 1014.6
20260831055428 18 0 0.0 0.0 0.00 0.00 0.00 78 1014.6
20260831054706 18 0 0.0 0.0 0.00 0.00 0.00 77 1014.4
20260831053948 18 0 0.0 0.0 0.00 0.00 0.00 77 1014.8
20260831053231 18 0 0.0 0.0 0.00 0.00 0.00 78 1014.7
20260831052511 18 0 0.0 0.0 0.00 0.00 0.00 78 1014.8
20260831051755 17 0 0.0 0.0 0.00 0.00 0.00 79 1014.8
20260831050753 17 0 0.0 0.0 0.00 0.00 0.00 79 1014.8
20260831050033 17 0 0.0 0.0 0.00 0.00 0.00 80 1014.8
20260831045314 17 0 0.0 0.0 0.00 0.00 0.00 80 1014.9
20260831044555 17 0 0.0 0.0 0.00 0.00 0.00 81 1015.0
20260831043838 17 0 0.0 0.0 0.00 0.00 0.00 82 1014.9
20260831043119 16 0 0.0 0.0 0.00 0.00 0.00 84 1014.8
20260831042400 16 0 0.0 0.0 0.00 0.00 0.00 83 1014.8
20260831041642 16 0 0.0 0.0 0.00 0.00 0.00 84 1014.8
20260831040925 17 0 0.0 0.0 0.00 0.00 0.00 83 1015.1
20260831040207 16 0 0.0 0.0 0.00 0.00 0.00 84 1015.2
20260831035449 16 0 0.0 0.0 0.00 0.00 0.00 84 1015.0
20260831034732 16 0 0.0 0.0 0.00 0.00 0.00 84 1015.0
20260831034013 16 0 0.0 0.0 0.00 0.00 0.00 84 1015.2
20260831033257 16 0 0.0 0.0 0.00 0.00 0.00 84 1015.2
20260831032539 16 0 0.0 0.0 0.00 0.00 0.00 83 1015.2
20260831031537 16 0 0.0 0.0 0.00 0.00 0.00 84 1015.6
20260831030820 16 0 0.0 0.0 0.00 0.00 0.00 84 1015.6
20260831025344 16 0 0.0 0.0 0.00 0.00 0.00 83 1015.6
20260831024627 17 0 0.0 0.0 0.00 0.00 0.00 82 1015.8
20260831023909 17 0 0.0 0.0 0.00 0.00 0.00 82 1015.7
20260831023153 17 0 0.0 0.0 0.00 0.00 0.00 82 1015.9
20260831022435 17 0 0.0 0.0 0.00 0.00 0.00 81 1016.0
20260831021718 17 0 0.0 0.0 0.00 0.00 0.00 80 1015.9
20260831020954 17 0 0.0 0.0 0.00 0.00 0.00 82 1015.8
20260831020225 16 0 0.0 0.0 0.00 0.00 0.00 84 1015.9
20260831015500 16 0 0.0 0.0 0.00 0.00 0.00 83 1015.8
20260831014734 17 0 0.0 0.0 0.00 0.00 0.00 82 1016.0
20260831014009 16 0 0.0 0.0 0.00 0.00 0.00 84 1016.0
20260831013245 16 0 0.0 0.0 0.00 0.00 0.00 83 1016.0
20260831012234 16 0 0.0 0.0 0.00 0.00 0.00 82 1016.0
20260831011515 17 0 0.0 0.0 0.00 0.00 0.00 81 1016.0
20260831010757 17 0 0.0 0.0 0.00 0.00 0.00 79 1016.0
20260831010034 17 0 0.0 0.0 0.00 0.00 0.00 79 1016.0
20260831005306 17 0 0.0 0.0 0.00 0.00 0.00 80 1016.2
20260831004532 17 0 0.0 0.0 0.00 0.00 0.00 80 1016.2
20260831003756 17 0 0.0 0.0 0.00 0.00 0.00 79 1016.2
20260831003023 17 0 0.0 0.0 0.00 0.00 0.00 81 1016.2
20260831002249 17 0 0.0 0.0 0.00 0.00 0.00 80 1016.2
20260831001514 17 0 0.0 0.0 0.00 0.00 0.00 80 1016.2
20260831000737 17 0 0.0 0.0 0.00 0.00 0.00 80 1016.2
20260831000002 17 0 0.0 0.0 0.00 0.00 0.00 80 1016.4
20260830235225 17 0 0.0 0.0 0.00 0.00 0.00 79 1016.1
20260830234448 17 0 0.0 0.0 0.00 0.00 0.00 78 1016.2
20260830233716 18 0 0.0 0.0 0.00 0.00 0.00 76 1016.2
20260830232701 18 0 0.0 0.0 0.00 0.00 0.00 76 1016.4
20260830231934 18 0 0.0 0.0 0.00 0.00 0.00 76 1016.4
20260830231212 18 0 0.0 0.0 0.00 0.00 0.00 75 1016.3
20260830230455 18 0 0.0 0.0 0.00 0.00 0.00 74 1016.4
20260830225737 18 0 0.0 0.0 0.00 0.00 0.00 76 1016.4
20260830225019 18 0 0.0 0.0 0.00 0.00 0.00 76 1016.4
20260830224301 18 0 0.0 0.0 0.00 0.00 0.00 75 1016.5
20260830223544 19 0 0.0 0.0 0.00 0.00 0.00 74 1016.4
20260830222828 20 0 0.0 0.0 0.00 0.00 0.00 72 1016.5
20260830222111 20 0 0.0 0.0 0.00 0.00 0.00 72 1016.4
20260830221353 19 0 0.0 0.0 0.00 0.00 0.00 74 1016.4
20260830220635 18 0 0.0 0.0 0.00 0.00 0.00 74 1016.4
20260830215917 18 0 0.0 0.0 0.00 0.00 0.00 76 1016.3
20260830215200 18 0 0.0 0.0 0.00 0.00 0.00 74 1016.4
20260830214441 18 0 0.0 0.0 0.00 0.00 0.00 74 1016.4
20260830213440 18 0 0.0 0.0 0.00 0.00 0.00 72 1016.4
20260830212723 18 0 0.0 0.0 0.00 0.00 0.00 72 1016.4
20260830212005 18 0 0.0 0.0 0.00 0.00 0.00 72 1016.4
20260830211247 18 0 0.0 0.0 0.00 0.00 0.00 72 1016.5
20260830210529 19 0 0.0 0.0 0.00 0.00 0.00 71 1016.5
20260830205811 20 0 0.0 0.0 0.00 0.00 0.00 71 1016.6
20260830205054 20 0 0.0 0.0 0.00 0.00 0.00 72 1016.5
20260830204335 20 0 0.0 0.0 0.00 0.00 0.00 72 1016.6
20260830203618 20 0 0.0 0.0 0.00 0.00 0.00 71 1016.4
20260830202859 20 0 0.0 0.0 0.00 0.00 0.00 70 1016.5
20260830202141 20 0 0.0 0.0 0.00 0.00 0.00 69 1016.5
20260830201423 20 0 0.0 0.0 0.00 0.00 0.00 68 1016.5